Location: Recife
(8.0585°S, 34.8848°W)
Time: 10:59:58
(UTC-03:00)

Transit 2A - Pass Details

Date: 20 April 2026
Orbit: 594 x 950 km, 66.7° (Epoch: 14 May)

Event Time Altitude Azimuth Distance (km) Brightness Sun altitude
Rises 07:51:20 0° 336° (NNW) 2,903 9.0 34.9°
Reaches altitude 10° 07:53:39 10° 334° (NNW) 1,967 8.2 35.4°
Maximum altitude 07:58:00 71° 250° (WSW) 632 5.9 36.4°
Drops below altitude 10° 08:02:17 10° 165° (SSE) 1,930 8.1 37.4°
Sets 08:04:32 0° 163° (SSE) 2,842 8.9 37.9°
